sat.trackr.live / text

‹ back to catalog

KUIPER-00160

NORAD 67765 · 2026-030B

PAYLOAD ACTIVE UNKNOWN

§ Identity

Operator
Country
US
Launch date
2026-02-12
Launch site
FRGUI
Launch vehicle
Mass (kg)
RCS (m²)

External: N2YO · Heavens-Above · Gunter

§ Orbital elements

Epoch: 2026-09-20T22:00:03.000096Z

Period
97.31 min
Inclination
51.8987°
Eccentricity
0.0001351
Mean motion
14.79817429 rev/d
Perigee alt
629.0 km
Apogee alt
630.8 km
Semi-major
7,008.0 km
B*
-4.7033e-3
RAAN
2.3523°
Arg perigee
155.6718°
Mean anomaly
279.0411°
Rev number
504

§ Raw data

KUIPER-001601 67765U 26030B   26263.91670139 -.00035788  00000+0 -47033-2 0  99982 67765  51.8987   2.3523 0001351 155.6718 279.0411 14.79817429  5044

JSON: /api/v1/satellites/67765 · /tle

For live sub-satellite position, see the globe view (requires WebGL).

§ Visibility from observer

Set your observer location to see the next 7 days of passes ≥ 10°. The values pass through the URL so the page stays shareable.

No JS? Fill the form by hand. The geolocation button needs JavaScript.